Location: DeLan Observatory
(46.9670°N, 70.5500°W)
Time: 20:39:45
(UTC-04:00)

ISS - Visible Passes

Search period start: 19 October 2019 00:00
Search period end: 29 October 2019 00:00
Orbit: 411 x 421 km, 51.6° (Epoch: 19 October)

Date Brightness Start Highest point End Pass type
(mag) Time Alt. Az. Time Alt. Az. Time Alt. Az.
23 Oct -0.7 06:15:16 10° SSE 06:17:01 14° SE 06:18:47 10° ESE visible
25 Oct -2.0 06:13:10 10° SSW 06:16:11 31° SE 06:19:12 10° ENE visible
26 Oct -1.3 05:25:27 11° S 05:27:42 20° SE 05:30:14 10° E visible
27 Oct -0.8 04:39:25 13° SE 04:39:25 13° SE 04:40:48 10° ESE visible
27 Oct -3.5 06:12:21 12° SW 06:15:28 70° SSE 06:18:50 10° ENE visible
28 Oct -2.9 05:26:08 37° S 05:26:53 45° SE 05:30:07 10° ENE visible
